Location: Ottawa
(45.4170°N, 75.7000°W)
Time: 20:49:01
(UTC-04:00)

Iridium 91 - Visible Passes

Search period start: 26 March 2017 00:00
Search period end: 05 April 2017 00:00
Orbit: 776 x 779 km, 86.4° (Epoch: 25 March)

Date Brightness Start Highest point End Pass type
(mag) Time Alt. Az. Time Alt. Az. Time Alt. Az.
26 Mar 5.5 21:29:04 10° N 21:34:15 59° E 21:34:47 56° ESE visible
26 Mar 7.7 23:10:57 10° NW 23:14:28 18° WNW 23:15:16 18° W visible
27 Mar 6.2 20:55:50 10° NNE 21:00:34 33° ENE 21:01:48 30° ESE visible
27 Mar 7.0 22:36:38 10° NNW 22:41:13 32° W 22:42:19 29° WSW visible
28 Mar 6.9 20:22:58 10° NNE 20:26:45 20° ENE 20:28:52 16° ESE visible
28 Mar 6.1 22:02:45 10° NNW 22:07:52 56° W 22:09:23 41° SW visible
29 Mar 5.4 21:29:07 10° N 21:34:22 83° E 21:36:29 37° S visible
29 Mar 8.2 23:12:00 10° NW 23:14:19 13° WNW 23:16:38 10° WSW visible
30 Mar 5.8 20:55:44 10° N 21:00:47 47° E 21:03:38 24° SE visible
30 Mar 7.6 22:37:08 10° NNW 22:41:10 23° W 22:44:08 14° WSW visible
31 Mar 6.5 20:22:36 10° NNE 20:27:02 27° ENE 20:30:49 13° SE visible
31 Mar 6.7 22:03:01 10° NNW 22:07:52 39° W 22:11:20 18° SW visible
01 Apr 5.7 21:29:15 10° N 21:34:28 70° W 21:38:34 16° S visible
02 Apr 5.5 20:55:43 10° N 21:00:56 67° E 21:05:52 11° SSE visible
02 Apr 8.1 22:37:53 10° NW 22:41:03 16° WNW 22:44:13 10° WSW visible
03 Apr 6.1 20:22:25 10° NNE 20:27:17 37° E 20:32:06 10° SSE visible
03 Apr 7.4 22:03:26 10° NNW 22:07:51 28° W 22:12:15 10° SW visible
04 Apr 6.4 21:29:28 10° NNW 21:34:30 49° W 21:39:31 10° SSW visible
